When you browse on this site, cookies collect data to enhance your experience and personalize the content and advertising you see.
Visit our Privacy Policy to learn more. By continuing to use the site, you agree to this use of cookies and data.

Hourly Weather Afanasovo

Today, 28 September, Monday

Time Temperature Precipitation Wind Pressure Humidity
00:00 +10°C° 0 mm 3 mps 753 mmHg 70%
01:00 +10°C° 0 mm 3 mps 753 mmHg 71%
02:00 +10°C° 0 mm 3 mps 753 mmHg 73%
03:00 +9°C° 0 mm 3 mps 752 mmHg 74%
04:00 +9°C° 0 mm 3 mps 752 mmHg 74%
05:00 +9°C° 0 mm 3 mps 752 mmHg 75%
06:00 +9°C° 0 mm 3 mps 752 mmHg 72%
07:00 +10°C° 0 mm 3 mps 752 mmHg 69%
08:00 +11°C° 0 mm 4 mps 753 mmHg 66%
09:00 +12°C° 0 mm 4 mps 753 mmHg 63%
10:00 +12°C° 0 mm 4 mps 753 mmHg 59%
11:00 +13°C° 0 mm 4 mps 753 mmHg 56%
12:00 +13°C° 0 mm 4 mps 753 mmHg 58%
13:00 +13°C° 0 mm 4 mps 753 mmHg 60%
14:00 +12°C° 0 mm 4 mps 753 mmHg 63%
15:00 +12°C° 0 mm 4 mps 753 mmHg 67%
16:00 +11°C° 0 mm 4 mps 753 mmHg 71%
17:00 +11°C° 0 mm 3 mps 753 mmHg 75%
18:00 +10°C° 0 mm 3 mps 753 mmHg 78%
19:00 +9°C° 0 mm 3 mps 753 mmHg 81%
20:00 +9°C° 0 mm 3 mps 752 mmHg 84%
21:00 +9°C° 0.1 mm 3 mps 752 mmHg 84%
22:00 +9°C° 0.1 mm 3 mps 752 mmHg 85%
23:00 +9°C° 0.1 mm 3 mps 752 mmHg 85%

Tomorrow, 29 September, Tuesday

Time Temperature Precipitation Wind Pressure Humidity
00:00 +9°C° 0.2 mm 3 mps 752 mmHg 88%
01:00 +9°C° 0.2 mm 2 mps 753 mmHg 90%
02:00 +9°C° 0.2 mm 2 mps 753 mmHg 93%
03:00 +9°C° 0 mm 2 mps 752 mmHg 94%
04:00 +9°C° 0 mm 2 mps 752 mmHg 94%
05:00 +9°C° 0 mm 2 mps 752 mmHg 95%
06:00 +9°C° 0.1 mm 2 mps 752 mmHg 94%
07:00 +10°C° 0.1 mm 2 mps 752 mmHg 92%
08:00 +10°C° 0.1 mm 2 mps 752 mmHg 91%
09:00 +12°C° 0 mm 2 mps 752 mmHg 86%
10:00 +13°C° 0 mm 2 mps 752 mmHg 81%
11:00 +15°C° 0 mm 1 mps 752 mmHg 77%
12:00 +15°C° 0 mm 1 mps 752 mmHg 74%
13:00 +16°C° 0 mm 2 mps 752 mmHg 70%
14:00 +17°C° 0 mm 2 mps 752 mmHg 67%
15:00 +16°C° 0 mm 2 mps 752 mmHg 71%
16:00 +15°C° 0 mm 2 mps 752 mmHg 76%
17:00 +14°C° 0 mm 2 mps 751 mmHg 80%
18:00 +13°C° 0 mm 2 mps 751 mmHg 80%
19:00 +12°C° 0 mm 2 mps 752 mmHg 80%
20:00 +12°C° 0 mm 2 mps 752 mmHg 80%
21:00 +12°C° 0 mm 2 mps 752 mmHg 78%
22:00 +10°C° 0 mm 2 mps 752 mmHg 76%
23:00 +10°C° 0 mm 2 mps 751 mmHg 74%

Day after tomorrow, 30 September, Wednesday

Time Temperature Precipitation Wind Pressure Humidity
00:00 +10°C° 0 mm 2 mps 751 mmHg 71%
01:00 +10°C° 0 mm 2 mps 751 mmHg 69%
02:00 +10°C° 0 mm 2 mps 752 mmHg 67%
03:00 +9°C° 0 mm 2 mps 751 mmHg 68%
04:00 +9°C° 0 mm 2 mps 751 mmHg 68%
05:00 +8°C° 0 mm 2 mps 751 mmHg 69%
06:00 +9°C° 0 mm 2 mps 751 mmHg 67%
07:00 +9°C° 0 mm 2 mps 751 mmHg 65%
08:00 +10°C° 0 mm 2 mps 751 mmHg 63%
09:00 +12°C° 0 mm 2 mps 751 mmHg 60%
10:00 +12°C° 0 mm 3 mps 751 mmHg 57%
11:00 +14°C° 0 mm 3 mps 751 mmHg 54%
12:00 +16°C° 0 mm 3 mps 751 mmHg 54%
13:00 +16°C° 0 mm 3 mps 751 mmHg 53%
14:00 +17°C° 0 mm 3 mps 751 mmHg 53%
15:00 +16°C° 0 mm 3 mps 751 mmHg 59%
16:00 +13°C° 0 mm 3 mps 751 mmHg 64%
17:00 +13°C° 0 mm 2 mps 751 mmHg 70%
18:00 +13°C° 0 mm 2 mps 751 mmHg 72%
19:00 +12°C° 0 mm 2 mps 752 mmHg 74%
20:00 +10°C° 0 mm 2 mps 752 mmHg 76%
21:00 +10°C° 0 mm 2 mps 752 mmHg 77%
22:00 +10°C° 0 mm 2 mps 752 mmHg 79%
23:00 +9°C° 0 mm 2 mps 752 mmHg 80%

1 October, Thursday

Time Temperature Precipitation Wind Pressure Humidity
00:00 +9°C° 0 mm 2 mps 752 mmHg 82%
01:00 +9°C° 0 mm 2 mps 752 mmHg 84%
02:00 +9°C° 0 mm 2 mps 752 mmHg 85%
03:00 +8°C° 0 mm 2 mps 752 mmHg 87%
04:00 +8°C° 0 mm 2 mps 752 mmHg 88%
05:00 +8°C° 0 mm 2 mps 752 mmHg 90%
06:00 +9°C° 0 mm 2 mps 752 mmHg 85%
07:00 +9°C° 0 mm 2 mps 752 mmHg 81%
08:00 +10°C° 0 mm 3 mps 752 mmHg 76%
09:00 +12°C° 0 mm 3 mps 752 mmHg 71%
10:00 +14°C° 0 mm 3 mps 752 mmHg 65%
11:00 +16°C° 0 mm 3 mps 752 mmHg 59%
12:00 +17°C° 0 mm 3 mps 752 mmHg 56%
13:00 +18°C° 0 mm 3 mps 752 mmHg 53%
14:00 +18°C° 0 mm 4 mps 752 mmHg 50%
15:00 +17°C° 0 mm 3 mps 752 mmHg 55%
16:00 +14°C° 0 mm 3 mps 752 mmHg 61%
17:00 +13°C° 0 mm 3 mps 752 mmHg 67%
18:00 +12°C° 0 mm 3 mps 752 mmHg 68%
19:00 +11°C° 0 mm 3 mps 753 mmHg 69%
20:00 +11°C° 0 mm 3 mps 753 mmHg 70%
21:00 +11°C° 0 mm 3 mps 753 mmHg 70%
22:00 +10°C° 0 mm 2 mps 753 mmHg 70%
23:00 +10°C° 0 mm 2 mps 753 mmHg 71%

2 October, Friday

Time Temperature Precipitation Wind Pressure Humidity
00:00 +10°C° 0 mm 2 mps 753 mmHg 71%
01:00 +10°C° 0 mm 2 mps 753 mmHg 71%
02:00 +10°C° 0 mm 2 mps 753 mmHg 72%
03:00 +9°C° 0 mm 2 mps 753 mmHg 74%
04:00 +9°C° 0 mm 2 mps 753 mmHg 75%
05:00 +8°C° 0 mm 2 mps 753 mmHg 77%
06:00 +9°C° 0 mm 2 mps 753 mmHg 74%
07:00 +10°C° 0 mm 3 mps 753 mmHg 72%
08:00 +11°C° 0 mm 3 mps 753 mmHg 69%
09:00 +12°C° 0 mm 3 mps 753 mmHg 65%
10:00 +14°C° 0 mm 3 mps 753 mmHg 62%
11:00 +16°C° 0 mm 3 mps 754 mmHg 59%
12:00 +17°C° 0 mm 3 mps 754 mmHg 58%
13:00 +17°C° 0 mm 3 mps 753 mmHg 56%
14:00 +18°C° 0 mm 3 mps 753 mmHg 55%
15:00 +17°C° 0 mm 3 mps 754 mmHg 62%
16:00 +14°C° 0 mm 3 mps 754 mmHg 69%
17:00 +14°C° 0 mm 2 mps 754 mmHg 76%
18:00 +13°C° 0 mm 2 mps 754 mmHg 78%
19:00 +13°C° 0 mm 2 mps 754 mmHg 81%
20:00 +12°C° 0 mm 2 mps 754 mmHg 84%
21:00 +12°C° 0 mm 2 mps 755 mmHg 85%
22:00 +10°C° 0 mm 2 mps 755 mmHg 85%
23:00 +10°C° 0 mm 2 mps 755 mmHg 86%

3 October, Saturday

Time Temperature Precipitation Wind Pressure Humidity
00:00 +10°C° 0 mm 2 mps 755 mmHg 86%
01:00 +10°C° 0 mm 2 mps 755 mmHg 86%
02:00 +9°C° 0 mm 2 mps 755 mmHg 86%
03:00 +9°C° 0 mm 2 mps 755 mmHg 88%
04:00 +9°C° 0 mm 2 mps 755 mmHg 89%
05:00 +9°C° 0 mm 2 mps 755 mmHg 90%
06:00 +10°C° 0 mm 2 mps 755 mmHg 86%
07:00 +10°C° 0 mm 2 mps 755 mmHg 83%
08:00 +11°C° 0 mm 3 mps 755 mmHg 80%
09:00 +12°C° 0 mm 3 mps 755 mmHg 76%
10:00 +13°C° 0 mm 3 mps 755 mmHg 72%
11:00 +16°C° 0 mm 3 mps 755 mmHg 68%
12:00 +16°C° 0 mm 3 mps 755 mmHg 65%
13:00 +17°C° 0 mm 3 mps 755 mmHg 63%
14:00 +17°C° 0 mm 3 mps 755 mmHg 61%
15:00 +16°C° 0 mm 3 mps 755 mmHg 67%
16:00 +14°C° 0 mm 3 mps 755 mmHg 74%
17:00 +13°C° 0 mm 2 mps 755 mmHg 80%
18:00 +13°C° 0 mm 2 mps 755 mmHg 83%
19:00 +12°C° 0 mm 2 mps 755 mmHg 85%
20:00 +11°C° 0 mm 3 mps 756 mmHg 88%
21:00 +10°C° 0 mm 2 mps 756 mmHg 89%
22:00 +10°C° 0 mm 2 mps 756 mmHg 91%
23:00 +9°C° 0 mm 2 mps 756 mmHg 93%
Show more